Retour au catalogue

ARABSAT 3A

ActifCommunicationsGEO
NORAD 25638·PAYLOAD·🇦🇪 UAE🇸🇦 Saudi Arabia

Lancé Feb 26, 1999 depuis Guiana Space Centre

Loading…

TLE

FraisSource: Space-Track

Époque: Sep 14, 2026, 04:17 UTC

1 25638U 99009A   26257.17853054 -.00000176  00000-0  00000-0 0  9991
2 25638  12.0785  31.7475 0001478   0.8791 181.9565  1.00180482100854

Suivez ARABSAT 3A en temps réel avec AllMySat

Download on the App Store